ASTRID

Satellite information

Favourite Embed

Satellite Type and Status

PAYLOADIN ORBIT

Key statistics

Satellite ASTRID at a glance.

Uptime

11182

Days in orbit

Revolutions

≈ 13.7

Per day

Orbit

LEO

Low Earth Orbit

Inclination

82.9

Latest

Satellite identification and parameters

Extended collection of information and parameters for ASTRID.

Object identification

Identified? True

Debris? False

Object name: ASTRID

International designator: 1995-002B

Object number (NORAD): 23464

Object ID (CCSDS): 23464

Country: SWEDEN (SWED)

Current information (Y/N): Y

RCS size: MEDIUM

Orbital parameters

Period: 104.879 minutes

Inclination: 82.9248 deg

SMA: 7366.905 km

Apoapsis: 1018.027 km

Periapsis: 959.513 km

RAAN: 230.9611 deg

Eccentricy: 0.00397135

Argument of periapsis: 224.9827 deg

Mean anomaly: 134.8109 deg

Mean motion: 13.73014605 rev/day

Mean motion (dot): 0.00000186 rev/day2

B* drag term: 0.00018457081 1/REarth

Two-line elements (TLE)

Creation date: Sept. 3, 2025, 10:15 a.m.

Reference frame: TEME

Reference center: EARTH

Epoch: Sept. 3, 2025, 4:56 a.m. UTC

TLE line 0: 0 ASTRID

TLE line 1: 1 23464U 95002B 25246.20601981 .00000186 00000-0 18457-3 0 9994

TLE line 2: 2 23464 82.9248 230.9611 0039713 224.9827 134.8109 13.73014605532650

Live tracking on map

Real-time ground track for satellite ASTRID.

In-orbit conjunctions

A list of the most updated potential collisions computed for object ASTRID.

Target Orbit TCA Probability of collision Miss distance Type
FENGYUN 1C DEB SSO 2024-12-17 20:54:16 0.001400361 174.0 (m) DEBRIS
FENGYUN 1C DEB SSO 2024-09-09 20:30:20 0.0002120275 943.0 (m) DEBRIS
FENGYUN 1C DEB SSO 2024-06-27 09:00:44 0.0002353729 755.0 (m) DEBRIS

Associated space launch

Civilian navigation satellite equivalent to the purely military Parus

ASTRID was lifted into orbit during the mission ‘Kosmos-3M | Tsikada 20’, on board a Kosmos-3M space rocket.

The launch took place on Jan. 24, 1995, 3:54 a.m. from 132/1 (132L).

For more information about the launch, click the button.

Launch to space Kosmos-3M | Tsikada 20
Kosmos-3M | Tsikada 20

Agency: N/A

Status: Launch Successful

Launch date: Jan. 24, 1995, 3:54 a.m. UTC

Rocket: Kosmos-3M

Launch pad: 132/1 (132L)

Location: Plesetsk Cosmodrome, Russian Federation

...

Latest news about this satellite

There are no fresh news available about this satellite. Check back as we update our databases every day.


Newsletter sign-up

Weekly statistics, charts and insights to help you stay on top of the space industry.